Vertical_Velocity
-1 -1 -4 1 1 -1 -3 1 -4 2 1 2 -3 1 2 1 0 5 -1 1 -1 -2 -2 -2 -2 -4 -0 0 -3 -5 -1 3 2 1 -1 0 0 1 -0 2 -0 -3 -1 3 2 -5 -5
-2 -4 -3 -0 -4 2 -5 -0 7 -1 0 -0 -0 6 -2 2 -3 7 6 2 2 -1 -1 -2 1 -3 -3 -11 1 -1 -2 -1 3 2 1 -4 -1 3 0 -4 0 3 0 -2 -1 -4 -0
2 0 -1 -0 -2 -0 1 -2 -4 2 -0 2 -1 -1 4 2 10 -3 -2 3 -3 -0 -6 6 -3 -5 -9 10 -7 -0 -9 3 7 3 -1 1 -1 0 0 -1 5 0 -2 2 -6 2 -1
-0 -1 -1 -3 1 1 0 0 -2 0 3 -0 2 0 -1 2 -3 -13 7 6 0 3 -2 1 -3 -7 -24 4 4 -2 0 -4 3 9 2 -1 2 -1 -4 1 2 2 2 -3 -6 3 2
-2 -3 0 -0 -2 -0 3 -1 -2 -3 0 2 3 -0 -2 -2 -0 -5 10 -3 7 4 6 2 -1 -1 -17 -4 -4 6 -8 -3 11 4 2 6 -4 2 2 -4 4 -3 0 -1 -5 2 4
-0 1 0 -1 -3 -0 -1 1 3 -6 -0 -5 3 -1 4 9 -3 -1 4 -10 7 -12 3 2 2 4 2 -1 -5 12 -0 -7 4 7 4 1 3 3 -6 1 -10 -1 2 -1 -3 -2 5
-4 -2 2 -7 1 1 -3 -1 -1 4 1 3 -3 -3 -0 1 -0 3 3 7 -0 -14 1 4 -9 0 1 2 -9 3 11 -6 -2 7 3 2 -1 -19 5 9 5 1 2 2 -5 -2 -5
-6 -1 -3 0 -4 -4 3 2 -4 1 2 6 3 1 -2 2 2 5 3 3 -3 -11 -35 -7 14 -20 -7 14 -1 2 9 -7 1 -5 5 8 -3 -5 5 3 4 2 2 -4 -2 1 -1
-11 -2 -1 3 -6 -6 -4 -0 -1 -1 0 8 2 6 2 6 -7 8 2 20 -2 -9 -9 12 -2 -27 12 3 -2 3 5 5 3 4 -4 -3 0 4 4 4 2 0 -1 -5 4 -3 -5
-7 0 -1 9 -11 -1 -7 -3 -3 3 -3 -1 3 1 -1 -8 3 -0 -0 14 3 -2 -6 -28 -8 -18 -11 0 -23 6 1 9 2 -2 8 6 -3 -0 7 0 3 2 4 3 -3 8 -3
-5 -6 3 -2 3 -4 -11 1 -8 4 0 -0 -4 -9 28 16 -1 5 11 1 7 5 -5 -2 7 -2 -2 -3 4 -9 12 4 -4 0 2 -12 2 3 3 -15 12 -11 3 2 1 1 8
-6 -6 -5 0 -4 7 4 -2 1 1 -1 -3 25 6 5 28 4 9 9 -1 8 -2 -16 2 1 -0 2 10 8 -5 2 11 10 7 2 8 6 -0 5 7 5 5 -1 2 3 4 4
1 -6 -4 -5 -4 -2 -5 -8 -3 13 25 38 22 23 18 3 5 -0 12 10 -12 -2 9 -3 2 -1 4 -4 12 8 -5 3 5 1 -1 5 -1 5 3 1 -1 2 5 -2 -1 1 -5
-5 -2 -1 -5 -4 -1 5 -3 5 0 -4 -6 -4 1 0 -7 6 3 10 4 3 5 -1 4 4 9 6 1 10 13 4 -1 2 2 3 -1 4 5 3 1 -0 3 2 -5 -3 -2 -4
2 -1 2 -3 0 5 -3 -2 0 -0 -1 -1 3 3 -1 -4 5 1 7 1 -10 6 1 3 8 10 8 8 0 9 11 3 2 3 -1 -0 3 3 -0 3 1 1 2 -0 1 1 3
-3 5 1 6 -4 2 1 2 0 0 -4 -1 -2 0 -2 -1 -4 3 10 -3 -6 2 5 -3 -4 5 3 -1 9 6 3 4 -1 -1 -1 -3 -1 2 -0 -1 0 0 -0 1 -0 -1 -0
0 -4 1 6 1 -4 4 1 1 -2 -3 -0 0 0 5 2 -0 7 3 -8 3 2 -9 -1 -2 1 7 -1 2 -5 -3 -4 -2 -2 -1 -3 -1 -3 4 3 -2 1 -2 -2 -2 -3 1
-1 -6 3 2 2 -3 2 2 -0 -1 0 3 2 -2 -0 2 -11 -3 -8 -5 3 13 -9 11 -2 -7 6 0 1 -2 -3 -0 -1 -1 -1 -2 -1 -4 -5 -1 -1 1 1 2 -0 4 -2
-0 1 -1 1 -0 -2 -1 1 1 -2 2 4 -1 2 2 1 -0 -4 9 -1 -10 -0 -7 -3 -5 3 -3 4 4 7 -3 -1 0 1 0 2 1 -0 1 3 1 2 1 -2 -4 -2 -5
3 2 -1 -0 -2 -1 1 2 2 2 1 2 2 -2 2 1 4 2 3 -4 7 8 -9 7 -1 -11 -11 -11 -4 -4 2 1 -1 -0 -2 0 1 -2 -6 0 1 -1 -0 -0 3 1 -9
2 -0 0 1 -2 -1 2 2 2 3 0 5 6 2 1 -16 -4 2 7 12 -3 -1 4 -5 4 2 0 -2 2 -1 2 1 -1 -2 -1 -1 -2 -2 -2 -0 1 -3 -10 1 3 2 3
-1 -0 0 -1 -4 -0 3 2 5 1 0 1 2 -3 -9 -5 8 3 0 4 -6 -5 4 1 -0 -0 -2 1 1 -3 0 1 1 0 2 -2 -1 -1 -7 -2 -3 -6 2 -3 -8 -8 -10
-1 -0 0 -4 -0 1 2 1 2 -3 3 1 5 4 2 4 1 4 -2 -4 -2 4 2 2 0 1 0 -3 -3 -2 -1 -0 1 -1 -1 -4 1 1 1 5 0 -6 4 4 6 11 7
-0 -0 -2 -0 2 1 0 -2 -6 -1 -1 4 5 -0 -1 1 3 3 -0 2 2 0 0 -0 -1 -1 -0 -2 -0 1 0 -1 0 0 -2 -1 1 -2 -3 -2 -3 5 -4 -2 -4 -6 5
-1 -1 1 0 -2 2 4 0 3 3 3 -2 3 2 3 2 3 2 -0 0 0 -2 -2 -1 -2 1 -1 -1 -1 -2 1 2 3 4 4 0 1 -0 1 -1 -4 1 -3 -2 -3 -9 3
-1 -2 3 -1 -3 5 -2 -2 1 -6 1 4 3 2 2 -0 3 1 4 5 -1 -0 0 -1 1 1 -1 -2 -0 -1 -1 0 2 1 1 1 3 -1 1 -1 -2 -3 4 2 4 1 4
-3 -0 -1 0 3 1 4 -5 4 2 2 4 2 -0 3 2 0 1 -1 0 1 0 -1 0 -2 -2 0 1 -3 -2 1 0 -2 -3 -1 -3 0 -1 -1 1 2 1 1 -0 7 -0 1
-0 -1 -1 3 3 -4 0 1 3 1 1 4 2 1 0 3 2 2 2 2 1 -1 -1 -3 -3 -2 -2 -0 -0 -1 -2 -2 -2 -1 1 3 2 1 2 1 -1 -2 1 -1 1 2 7
2 -0 -1 -2 1 -0 1 3 -2 1 1 4 1 -2 2 1 -2 4 2 -7 -6 -1 0 -0 -1 1 -1 -2 -5 -1 -1 0 0 0 4 -1 1 0 -1 -1 -1 0 0 -0 2 3 8
Height
3066 3066 3066 3065 3065 3065 3066 3067 3066 3066 3068 3069 3071 3071 3072 3072 3073 3073 3073 3074 3074 3073 3072 3070 3067 3068 3067 3066 3074 3069 3067 3068 3068 3068 3067 3067 3068 3068 3067 3066 3068 3065 3067 3068 3068 3067 3068
3058 3057 3056 3055 3056 3056 3055 3054 3054 3056 3056 3058 3059 3060 3061 3064 3064 3064 3064 3065 3064 3064 3063 3061 3059 3060 3058 3055 3065 3062 3060 3062 3061 3061 3061 3061 3063 3061 3060 3061 3063 3062 3062 3062 3062 3064 3063
3048 3047 3046 3046 3045 3044 3043 3044 3044 3044 3045 3047 3047 3049 3051 3053 3054 3055 3056 3057 3056 3055 3055 3052 3051 3048 3045 3052 3055 3052 3054 3055 3056 3055 3055 3056 3056 3056 3055 3058 3059 3058 3058 3057 3059 3061 3059
3038 3037 3036 3035 3035 3034 3033 3033 3033 3033 3033 3034 3035 3036 3039 3042 3042 3045 3044 3045 3046 3044 3045 3044 3041 3039 3030 3044 3043 3045 3045 3049 3049 3048 3050 3050 3050 3049 3050 3055 3055 3055 3055 3054 3055 3056 3056
3029 3029 3027 3025 3025 3024 3023 3023 3023 3023 3023 3022 3023 3025 3027 3032 3032 3037 3036 3036 3033 3034 3034 3033 3032 3031 3026 3030 3031 3033 3033 3040 3042 3042 3043 3043 3043 3044 3047 3049 3051 3051 3049 3051 3053 3053 3052
3019 3019 3018 3015 3014 3013 3012 3013 3012 3013 3012 3012 3013 3014 3016 3019 3022 3028 3027 3027 3023 3025 3023 3023 3023 3028 3027 3026 3026 3026 3026 3032 3033 3037 3036 3037 3036 3037 3041 3042 3040 3046 3048 3048 3048 3050 3046
3009 3010 3009 3005 3004 3004 3003 3002 3003 3002 3002 3002 3002 3004 3007 3009 3011 3016 3018 3018 3016 3016 3014 3016 3013 3014 3017 3017 3019 3020 3020 3025 3027 3029 3028 3028 3029 3026 3034 3037 3040 3043 3044 3043 3045 3045 3041
2998 2998 2999 2996 2992 2994 2992 2991 2991 2991 2992 2993 2992 2993 2997 3000 3003 3007 3008 3008 3007 3006 3006 3008 3006 3004 3009 3011 3014 3015 3017 3019 3020 3021 3026 3027 3020 3026 3032 3035 3037 3038 3039 3040 3040 3042 3039
2988 2987 2988 2987 2984 2981 2982 2980 2980 2979 2981 2983 2985 2986 2989 2992 2994 2996 3000 3003 2999 2996 2997 2998 2997 2998 3001 3001 3003 3008 3013 3013 3018 3018 3020 3022 3023 3023 3026 3030 3032 3034 3035 3038 3038 3037 3038
2977 2977 2977 2977 2975 2973 2972 2969 2970 2969 2970 2974 2976 2980 2979 2981 2988 2987 2992 2993 2991 2992 2989 2986 2984 2984 2987 2991 2991 3003 3006 3012 3013 3015 3018 3018 3020 3022 3024 3024 3029 3029 3033 3034 3034 3035 3036
2970 2968 2967 2965 2967 2964 2963 2962 2961 2960 2962 2965 2967 2968 2970 2973 2976 2980 2984 2984 2987 2987 2995 2981 2976 2975 2976 2982 2987 2994 3000 3004 3008 3010 3013 3012 3014 3015 3017 3021 3024 3025 3029 3030 3030 3031 3031
2962 2960 2957 2957 2955 2958 2955 2955 2953 2952 2953 2955 2956 2961 2963 2962 2970 2974 2972 2977 2980 2990 2985 2975 2971 2971 2974 2977 2983 2988 2995 3001 3005 3007 3008 3012 3013 3014 3015 3018 3022 3024 3025 3026 3026 3027 3024
2955 2954 2952 2950 2949 2948 2945 2947 2947 2945 2945 2948 2951 2950 2958 2961 2965 2967 2970 2973 2980 2982 2977 2975 2971 2971 2974 2977 2982 2985 2991 2997 3000 3003 3006 3008 3009 3011 3012 3014 3017 3019 3022 3024 3024 3022 3019
2947 2947 2946 2944 2945 2944 2943 2947 2947 2948 2951 2952 2952 2953 2955 2958 2959 2962 2965 2970 2976 2972 2972 2971 2971 2972 2974 2977 2982 2985 2987 2992 2997 3000 3001 3004 3007 3007 3009 3011 3014 3015 3017 3019 3018 3018 3014
2941 2941 2940 2939 2941 2941 2940 2942 2943 2944 2946 2948 2949 2950 2951 2953 2957 2960 2965 2968 2969 2970 2970 2971 2970 2973 2973 2975 2979 2984 2986 2990 2994 2995 2999 3000 3004 3005 3007 3009 3012 3012 3013 3015 3013 3012 3012
2934 2936 2934 2934 2936 2936 2937 2937 2938 2939 2942 2944 2945 2946 2948 2950 2954 2959 2964 2963 2967 2968 2969 2972 2969 2970 2972 2975 2977 2981 2986 2989 2990 2993 2995 2998 3001 3003 3005 3007 3009 3009 3011 3012 3011 3012 3009
2927 2930 2930 2929 2930 2931 2933 2933 2934 2935 2938 2940 2942 2944 2947 2949 2955 2959 2960 2963 2967 2968 2970 2971 2970 2973 2972 2974 2976 2981 2984 2988 2989 2991 2993 2996 2999 3002 3003 3004 3004 3007 3007 3009 3010 3010 3008
2921 2923 2924 2924 2925 2926 2928 2928 2929 2931 2934 2937 2938 2943 2946 2948 2954 2956 2959 2964 2966 2967 2968 2971 2970 2973 2973 2975 2976 2979 2981 2984 2987 2989 2991 2994 2996 3000 3001 3001 3000 3001 3002 3004 3005 3007 3006
2915 2918 2918 2920 2920 2921 2923 2924 2925 2928 2931 2934 2939 2943 2946 2949 2953 2957 2961 2963 2965 2967 2969 2969 2970 2974 2975 2976 2979 2978 2981 2984 2986 2988 2989 2991 2994 2996 2999 3002 2999 2999 3000 3002 3003 3004 3001
2909 2912 2913 2914 2916 2917 2919 2921 2924 2927 2931 2936 2941 2942 2946 2949 2952 2956 2960 2962 2965 2966 2968 2970 2971 2973 2975 2977 2978 2978 2980 2982 2984 2985 2987 2989 2990 2991 2995 2997 2997 2996 2996 2998 2999 2999 2996
2903 2906 2908 2910 2911 2914 2916 2919 2923 2928 2932 2937 2940 2942 2946 2947 2951 2955 2959 2961 2963 2965 2967 2968 2970 2971 2972 2974 2975 2977 2978 2980 2983 2984 2984 2986 2987 2988 2991 2992 2992 2991 2992 2992 2993 2992 2993
2898 2901 2903 2905 2907 2911 2914 2918 2923 2928 2932 2936 2940 2943 2946 2949 2953 2955 2958 2960 2962 2964 2966 2967 2968 2969 2971 2973 2975 2976 2977 2980 2980 2981 2982 2983 2984 2985 2986 2987 2986 2985 2985 2984 2985 2984 2980
2894 2896 2898 2901 2905 2909 2913 2918 2923 2927 2931 2935 2940 2943 2946 2948 2951 2955 2957 2958 2960 2963 2965 2965 2967 2969 2971 2973 2974 2975 2975 2977 2978 2979 2980 2982 2982 2982 2982 2983 2982 2979 2977 2978 2978 2977 2972
2891 2893 2896 2900 2904 2908 2913 2917 2922 2927 2932 2935 2939 2943 2946 2948 2951 2953 2955 2958 2960 2961 2963 2964 2966 2968 2970 2971 2972 2972 2973 2974 2975 2977 2978 2979 2980 2981 2981 2981 2981 2976 2975 2975 2973 2970 2965
2888 2890 2894 2898 2903 2908 2912 2917 2921 2927 2931 2935 2939 2942 2945 2946 2950 2953 2955 2957 2958 2961 2962 2964 2966 2968 2968 2969 2970 2972 2974 2975 2975 2976 2977 2978 2979 2979 2979 2979 2977 2975 2973 2973 2970 2967 2965
2886 2889 2893 2898 2902 2908 2912 2917 2922 2927 2931 2935 2938 2941 2945 2947 2950 2953 2956 2958 2958 2960 2962 2963 2965 2966 2967 2967 2969 2970 2972 2974 2975 2975 2976 2976 2976 2979 2979 2980 2979 2972 2972 2970 2967 2964 2962
2886 2890 2893 2898 2903 2908 2912 2917 2922 2926 2929 2933 2936 2940 2944 2947 2950 2953 2955 2957 2958 2959 2961 2963 2964 2966 2966 2967 2968 2971 2972 2973 2974 2975 2975 2975 2975 2976 2978 2978 2974 2970 2968 2966 2966 2968 2960
2886 2891 2895 2899 2903 2907 2913 2917 2921 2925 2929 2932 2936 2939 2944 2948 2950 2953 2955 2956 2958 2960 2962 2964 2966 2966 2967 2968 2969 2970 2972 2973 2975 2975 2974 2975 2975 2975 2976 2976 2974 2971 2967 2965 2966 2962 2959
2887 2891 2896 2900 2904 2908 2912 2916 2922 2925 2928 2931 2935 2940 2944 2949 2951 2953 2954 2957 2960 2963 2963 2964 2965 2966 2967 2967 2970 2971 2972 2973 2973 2974 2974 2975 2974 2974 2976 2975 2972 2970 2968 2966 2964 2962 2960